EW3680 Weather Reports


time (UTC)temp
C
wind
direction
speed
KPH
gust
KPH
rain 1hr
cm
rain 24hr
cm
rain mn
cm
humidity
%
barometer
mb
20260507130038 12 50 0.0 0.0 0.00 0.00 0.00 92 1015.7
20260507124536 12 67 0.0 0.0 0.00 0.00 0.00 91 1015.5
20260507123036 12 71 0.0 0.0 0.00 0.00 0.00 91 1015.5
20260507121535 12 59 0.0 0.0 0.00 0.00 0.00 91 1015.5
20260507120034 12 67 0.0 0.0 0.00 0.00 0.00 91 1015.5
20260507114515 12 69 0.0 0.0 0.00 0.00 0.00 91 1015.4
20260507113014 12 61 0.0 0.0 0.00 0.00 0.00 90 1015.5
20260507111556 12 61 0.0 0.0 0.00 0.00 0.00 91 1015.5
20260507110058 12 61 0.0 0.0 0.00 0.00 0.00 90 1015.6
20260507104536 13 61 0.0 0.0 0.00 0.00 0.00 90 1015.6
20260507103035 13 61 0.0 0.0 0.00 0.00 0.00 90 1015.8
20260507101529 13 61 0.0 0.0 0.00 0.00 0.00 90 1015.8
20260507100027 13 61 0.0 0.0 0.00 0.00 0.00 90 1015.8
20260507094615 13 62 0.0 0.0 0.00 0.00 0.00 90 1016.0
20260507093056 13 62 0.0 0.0 0.00 0.00 0.00 90 1016.0
20260507091603 13 62 0.0 0.0 0.00 0.00 0.00 90 1016.2
20260507090048 13 62 0.0 0.0 0.00 0.00 0.00 90 1016.4
20260507084537 13 65 0.0 0.0 0.00 0.00 0.00 90 1016.6
20260507083021 14 52 0.0 0.0 0.00 0.00 0.00 89 1016.7
20260507081523 14 52 0.0 0.0 0.00 0.00 0.00 89 1016.9
20260507080059 14 52 0.0 0.0 0.00 0.00 0.00 89 1016.9
20260507074558 15 52 0.0 0.0 0.00 0.00 0.00 88 1016.9
20260507073053 15 63 0.0 3.2 0.00 0.00 0.00 88 1016.8
20260507071537 15 329 0.0 3.2 0.00 0.00 0.00 88 1016.8
20260507070020 15 347 0.0 4.8 0.00 0.00 0.00 88 1017.0
20260507064519 15 355 1.6 4.8 0.00 0.00 0.00 87 1017.2
20260507063103 15 297 0.0 0.0 0.00 0.00 0.00 87 1017.2
20260507061559 15 292 0.0 0.0 0.00 0.00 0.00 86 1017.2
20260507060040 15 283 0.0 0.0 0.00 0.00 0.00 85 1017.1
20260507054537 15 282 0.0 0.0 0.00 0.00 0.00 83 1017.2
20260507053018 15 289 0.0 0.0 0.00 0.00 0.00 82 1017.2
20260507051518 15 309 0.0 4.8 0.00 0.00 0.00 81 1017.2
20260507050103 16 329 0.0 4.8 0.00 0.00 0.00 81 1017.1
20260507044602 16 312 0.0 4.8 0.00 0.00 0.00 80 1017.1
20260507043041 16 290 3.2 8.0 0.00 0.00 0.00 80 1017.0
20260507041537 16 308 3.2 8.0 0.00 0.00 0.00 79 1016.9
20260507040019 16 286 3.2 8.0 0.00 0.00 0.00 77 1016.9
20260507034516 16 305 4.8 11.3 0.00 0.00 0.00 75 1016.7
20260507033057 16 345 3.2 8.0 0.00 0.00 0.00 75 1016.5
20260507031556 16 326 4.8 12.9 0.00 0.00 0.00 75 1016.4
20260507030041 17 346 4.8 16.1 0.00 0.00 0.00 73 1016.3
20260507024536 17 273 3.2 14.5 0.00 0.00 0.00 72 1016.2
20260507023018 17 323 6.4 17.7 0.00 0.00 0.00 71 1016.1
20260507021517 17 288 4.8 16.1 0.00 0.00 0.00 71 1016.0
20260507020107 18 304 3.2 14.5 0.00 0.00 0.00 69 1015.8
20260507014616 18 313 6.4 12.9 0.00 0.00 0.00 68 1015.7
20260507013053 18 355 8.0 16.1 0.00 0.00 0.00 66 1015.7
20260507011547 19 324 6.4 16.1 0.00 0.00 0.00 64 1015.7
20260507010059 18 338 8.0 20.9 0.00 0.00 0.00 64 1015.7
20260507004547 19 304 6.4 19.3 0.00 0.00 0.00 64 1015.6
20260507003044 19 331 9.7 14.5 0.00 0.00 0.00 63 1015.5
20260507001548 19 269 6.4 20.9 0.00 0.00 0.00 64 1015.4
20260507000043 19 291 6.4 22.5 0.00 0.00 0.00 64 1015.4
20260506234540 19 288 4.8 17.7 0.00 0.00 0.00 64 1015.4
20260506233020 19 217 8.0 24.1 0.00 0.00 0.00 66 1015.3
20260506231518 19 279 12.9 22.5 0.00 0.00 0.00 64 1015.3
20260506230105 20 5 8.0 20.9 0.00 0.00 0.00 63 1015.4
20260506224559 19 333 12.9 25.7 0.00 0.00 0.00 65 1015.4
20260506223038 20 278 8.0 22.5 0.00 0.00 0.00 66 1015.6
20260506221536 20 303 6.4 17.7 0.00 0.00 0.00 65 1015.6
20260506220024 19 300 9.7 20.9 0.00 0.00 0.00 66 1015.8
20260506214514 19 260 11.3 20.9 0.00 0.00 0.00 66 1015.9
20260506213056 19 270 11.3 25.7 0.00 0.00 0.00 66 1016.0
20260506211554 19 250 12.9 20.9 0.00 0.00 0.00 66 1016.1
20260506210033 19 254 11.3 24.1 0.00 0.00 0.00 66 1016.2
20260506204533 19 299 9.7 22.5 0.00 0.00 0.00 66 1016.2
20260506203012 19 281 14.5 24.1 0.00 0.00 0.00 66 1016.4
20260506201510 20 277 11.3 20.9 0.00 0.00 0.00 64 1016.4
20260506200051 20 292 11.3 22.5 0.00 0.00 0.00 63 1016.5
20260506194552 20 284 6.4 16.1 0.00 0.00 0.00 62 1016.6
20260506193030 20 47 4.8 17.7 0.00 0.00 0.00 62 1016.7
20260506191528 20 355 6.4 16.1 0.00 0.00 0.00 59 1016.9
20260506190007 20 355 1.6 16.1 0.00 0.00 0.00 57 1017.0
20260506184505 20 344 1.6 12.9 0.00 0.00 0.00 59 1017.1
20260506183046 20 313 6.4 17.7 0.00 0.00 0.00 59 1017.3
20260506181541 18 256 3.2 25.7 0.00 0.00 0.00 60 1017.4
20260506180021 18 238 4.8 14.5 0.00 0.00 0.00 61 1017.6
20260506174519 18 340 6.4 17.7 0.00 0.00 0.00 62 1017.7
20260506173120 17 17 3.2 17.7 0.00 0.00 0.00 65 1017.8
20260506171558 17 326 3.2 16.1 0.00 0.00 0.00 69 1018.1
20260506170034 17 24 1.6 9.7 0.00 0.00 0.00 68 1018.1
20260506164533 16 275 3.2 8.0 0.00 0.00 0.00 69 1017.9
20260506163019 16 19 6.4 11.3 0.00 0.00 0.00 70 1018.1
20260506161511 16 36 4.8 9.7 0.00 0.00 0.00 72 1018.0
20260506160053 16 10 1.6 8.0 0.00 0.00 0.00 73 1018.1
20260506154600 15 9 1.6 8.0 0.00 0.00 0.00 73 1018.1
20260506153039 15 349 3.2 8.0 0.00 0.00 0.00 73 1018.2
20260506151533 15 98 4.8 8.0 0.00 0.00 0.00 75 1018.2
20260506150016 14 59 3.2 6.4 0.00 0.00 0.00 77 1018.2
20260506144513 13 43 4.8 9.7 0.00 0.00 0.00 78 1018.1
20260506143056 13 47 1.6 8.0 0.00 0.15 0.00 81 1018.0
20260506141557 12 80 4.8 12.9 0.00 0.15 0.00 82 1018.0
20260506140044 12 50 1.6 4.8 0.00 0.15 0.00 83 1018.0
20260506134536 12 38 0.0 6.4 0.00 0.15 0.00 84 1017.9
20260506133015 11 42 1.6 4.8 0.00 0.15 0.00 85 1017.8
20260506131518 11 82 0.0 1.6 0.00 0.15 0.00 86 1017.5